Retour au catalogue

KUIPER-00116

ActifCommunicationsLEO
NORAD 65153·PAYLOAD·🇺🇸 United States

Lancé Aug 11, 2025 depuis Cape Canaveral Space Force Station

Loading…

Prochains Passages (prochaines 24 heures)

TLE

FraisSource: CelesTrak SupGP

Époque: Sep 14, 2026, 19:36 UTC

1 65153C 25171X   26257.81695602  .00006524  00000+0  85423-3 0  2573
2 65153  51.9001  56.8098 0000658 101.6452 103.2412 14.79912182    10

Suivez KUIPER-00116 en temps réel avec AllMySat

Download on the App Store